STARLINK-37742, 69241

Orbit data source: Space-Track

STARLINK-37742, 69241 is a payload satellite owned by SpaceX/Seattle (US) in LEO that was launched on Fri, 29 May 2026 UTC via an FALCON 9 launch vehicle from the Air Force Eastern Test Range (AFETR). Payload-class satellites include a variety of spacecraft equipped with specific instruments for various scientific and technological missions. These include communications satellites like Starlink; space stations such as the ISS; scientific satellites like the Hubble; Earth observation satellites from companies like Planet Labs, Umbra, and HawkEye 360; GPS; miniature CubeSats for education and research; and military/defense satellites.

Loading next visibility...
Identifier
69241, 2026-117D
Orbit
LEO
Country
Flag of USUS
Related business
Manufacturer
SpaceX/Seattle
Mission
Operational spacecraft
Bus & Motor
STARLINK V2MO, Unknown motor
Mass
575 kg wet, ~530 kg dry
Launch date (UTC)
2026-05-29 (2 weeks ago)
Launch vehicle
FALCON 9
Launch site
Air Force Eastern Test Range (AFETR)
Object type
Payload
Rocket body
Debris
Shape & HBR
Unknown
Radar Cross Section
RCS unknown

Expand to show TLE details & history
Last TLE update: 6 days ago

TLE from 6 days ago
0 STARLINK-37742
1 69241U 26117D   26155.25004630 -.02106712  13275-2 -37747-2 0  9999
2 69241  53.1586 308.8323 0000339  76.1154 260.2626 16.01194735  2090
Epoch: 2026-06-04T06:00Z
TLE epoch observation values (Epoch: 2026-06-04T06:00:04.000Z)
Latitude
-18.89021°
Longitude
-48.65015°
Altitude
276.365 km
Speed
7.742 km/s
True Right ascension
19h 36m 15s
True Declination
-18° 46' 39"
Sunlit
Object was in full shadow at epoch
Visualization orbit readout
Latitude
Unknown
Longitude
Unknown
Altitude
Unknown
Speed
Unknown
Apparent Right ascension
Unknown
Apparent Declination
Unknown
Sunlit
N/A
Visualization observer readout
Local Sidereal Time
14:08:52
Azimuth
Unknown
Elevation
Unknown
Doppler factor
Unknown
Orbital elements
Apogee altitude
271.599 km
Perigee altitude
271.148 km
Semi-major axis
6,649.51 km
Eccentricity
0.00003
Inclination
53.1586°
RAAN
308.8323°
Arg. of periapsis
76.1154°
True anomaly
260.25877°
Mean anomaly
260.2626°
Eccentric anomaly
260.26069°
Mean motion
4.00275 °/min
Orbital period
89.94 mins
BSTAR
-0.0037747
Loading maneuver chart data...
Computing Atmospheric mass density...
Loading historical data...
Loading historical data...
Loading historical data...
Loading historical data...
Loading historical data...
Loading historical data...
Loading historical data...

Documentation

Showing up to 5 results
|